Location: *
(45.9500°N, 9.0833°E)
Time: 19:35:03
(UTC+00:00)

Vanguard 2 Rocket - Pass Details

Date: 19 June 2021
Orbit: 555 x 3325 km, 32.9° (Epoch: 30 July)

Event Time Altitude Azimuth Distance (km) Brightness Sun altitude
Rises 22:05:53 0° 265° (W) 7,068 11.6 -18.3°
Reaches altitude 10° 22:11:22 10° 260° (W) 5,774 11.1 -18.6°
Maximum altitude 22:26:03 42° 198° (SSW) 2,790 8.9 -19.3°
Enters shadow 22:31:51 25° 147° (SSE) 2,980 8.9 -19.6°
Drops below altitude 10° 22:35:07 10° 132° (SE) 3,611 - -19.7°
Sets 22:37:44 0° 125° (SE) 4,280 - -19.8°
